Weather History for Rawlins, WY

Change the Weather History Date:

Saturday, May 11, 2013

  Actual Average Record
Temperature  
Mean Temperature 51 °F 48 °F  
Max Temperature 70 °F 62 °F 79 °F (2007)
Min Temperature 32 °F 34 °F 19 °F (2006)
Degree Days  
Heating Degree Days 14 17  
Month to date heating degree days 220 205  
Since 1 July heating degree days 7699 7924  
Cooling Degree Days 0 0  
Month to date cooling degree days 0 0  
Year to date cooling degree days 0 0  
Moisture  
Dew Point 26 °F    
Average Humidity 50    
Maximum Humidity 85    
Minimum Humidity 14    
Precipitation  
Precipitation T in 0.04 in 0.45 in (1980)
Month to date precipitation 0.10 0.48  
Year to date precipitation 1.69 2.99  
Sea Level Pressure  
Sea Level Pressure 30.21 in    
Wind  
Wind Speed 6 mph (NNW)    
Max Wind Speed 31 mph    
Max Gust Speed 40 mph    
Visibility 10 miles    
Events      
T = Trace of Precipitation, MM = Missing Value Source: NWS Daily Summary

Daily Weather History Graph

Daily Weather History Graph

Search for Another Location

Airport:

Trip Planner

Search our weather history database for the weather conditions in past years. The results will help you decide how hot, cold, wet, or windy it might be!

Date:

Astronomy

May. 11, 2013 Rise Set
Actual Time 5:52 AM MDT 8:18 PM MDT
Civil Twilight 5:21 AM MDT 8:49 PM MDT
Nautical Twilight 4:42 AM MDT 9:28 PM MDT
Astronomical Twilight 3:58 AM MDT 10:12 PM MDT
Moon 7:02 AM MDT (5/11) 10:01 PM MDT (5/11)
Length of Visible Light 15h 28m
Length of Day
14h 25m
Waxing Crescent, 3% of the Moon is Illuminated
May 11
Waxing Crescent
May 17
First Quarter
May 24
Full
May 31
Last Quarter
Jun 8
New

Hourly Weather History & Observations

Time (MDT) Temp. Windchill Dew Point Humidity Pressure Visibility Wind Dir Wind Speed Gust Speed Precip Events Conditions
12:53 AM 41.0 °F 37.1 °F 30.0 °F 65% 30.28 in 10.0 mi NNE 5.8 mph - N/A   Clear
1:53 AM 42.1 °F 37.1 °F 30.9 °F 65% 30.25 in 10.0 mi NE 8.1 mph - N/A   Clear
2:53 AM 37.0 °F 32.4 °F 30.0 °F 76% 30.27 in 10.0 mi NW 5.8 mph - N/A   Clear
3:53 AM 39.0 °F 33.4 °F 30.9 °F 73% 30.27 in 10.0 mi NE 8.1 mph - N/A   Clear
4:53 AM 36.0 °F - 30.0 °F 79% 30.28 in 10.0 mi Calm Calm - N/A   Mostly Cloudy
5:53 AM 32.0 °F - 28.0 °F 85% 30.31 in 10.0 mi Calm Calm - N/A   Mostly Cloudy
6:53 AM 41.0 °F - 34.0 °F 76% 30.29 in 10.0 mi Calm Calm - N/A   Overcast
7:53 AM 43.0 °F - 34.0 °F 71% 30.29 in 10.0 mi Calm Calm - N/A   Mostly Cloudy
8:53 AM 48.9 °F - 32.0 °F 52% 30.28 in 10.0 mi Calm Calm - N/A   Clear
9:53 AM 55.0 °F - 30.0 °F 38% 30.25 in 10.0 mi Calm Calm - N/A   Partly Cloudy
10:53 AM 61.0 °F - 27.0 °F 27% 30.22 in 10.0 mi West 9.2 mph - N/A   Scattered Clouds
11:53 AM 63.0 °F - 26.1 °F 25% 30.20 in 10.0 mi West 12.7 mph 21.9 mph N/A   Scattered Clouds
12:53 PM 66.0 °F - 19.0 °F 17% 30.19 in 10.0 mi NW 12.7 mph 25.3 mph N/A   Partly Cloudy
1:53 PM 66.9 °F - 19.9 °F 17% 30.16 in 10.0 mi NW 11.5 mph 21.9 mph N/A   Mostly Cloudy
2:53 PM 64.9 °F - 23.0 °F 20% 30.18 in 10.0 mi Variable 5.8 mph 17.3 mph 0.00 in   Scattered Clouds
3:53 PM 68.0 °F - 19.0 °F 15% 30.13 in 10.0 mi North 10.4 mph 17.3 mph 0.00 in   Mostly Cloudy
4:53 PM 66.0 °F - 16.0 °F 15% 30.15 in 10.0 mi North 9.2 mph 18.4 mph N/A   Clear
5:53 PM 66.0 °F - 16.0 °F 15% 30.16 in 10.0 mi NNE 12.7 mph 18.4 mph N/A   Clear
6:53 PM 64.0 °F - 18.0 °F 17% 30.12 in 10.0 mi NNW 10.4 mph - N/A   Scattered Clouds
7:53 PM 60.1 °F - 21.0 °F 22% 30.12 in 10.0 mi Calm Calm - N/A   Clear
8:53 PM 53.1 °F - 25.0 °F 34% 30.14 in 10.0 mi SW 4.6 mph - N/A   Scattered Clouds
10:53 PM 53.1 °F - 26.1 °F 35% 30.10 in 10.0 mi Calm Calm - N/A   Mostly Cloudy
11:53 PM 51.1 °F - 28.0 °F 41% 30.09 in 10.0 mi WSW 10.4 mph - 0.00 in   Mostly Cloudy